| time (UTC) | temp F | wind direction | speed knots | gust knots | rain 1hr in | rain 24hr in | rain mn in | humidity % | barometer mb |
| 20260503004533 | 43 | 0 | 0.0 | 0.9 | 0.00 | 0.00 | 0.00 | 58 | 1015.5 |
| 20260503003038 | 44 | 262 | 0.0 | 0.9 | 0.00 | 0.00 | 0.00 | 56 | 1015.6 |
| 20260503001538 | 45 | 0 | 0.0 | 0.9 | 0.00 | 0.00 | 0.00 | 54 | 1015.4 |
| 20260503000037 | 46 | 259 | 0.9 | 4.3 | 0.00 | 0.00 | 0.00 | 51 | 1015.4 |
| 20260502234539 | 47 | 300 | 0.9 | 5.2 | 0.00 | 0.00 | 0.00 | 51 | 1015.6 |
| 20260502233043 | 46 | 238 | 2.6 | 6.1 | 0.00 | 0.00 | 0.00 | 50 | 1015.7 |
| 20260502231533 | 46 | 218 | 1.7 | 6.1 | 0.00 | 0.00 | 0.00 | 50 | 1015.7 |
| 20260502230040 | 46 | 311 | 2.6 | 8.7 | 0.00 | 0.00 | 0.00 | 49 | 1015.8 |
| 20260502224541 | 47 | 254 | 2.6 | 6.1 | 0.00 | 0.00 | 0.00 | 48 | 1015.9 |
| 20260502223038 | 47 | 252 | 1.7 | 5.2 | 0.00 | 0.00 | 0.00 | 49 | 1015.9 |
| 20260502221536 | 47 | 356 | 2.6 | 7.8 | 0.00 | 0.00 | 0.00 | 48 | 1015.6 |
| 20260502220035 | 46 | 335 | 4.3 | 10.4 | 0.00 | 0.00 | 0.00 | 48 | 1015.8 |
| 20260502214537 | 46 | 287 | 4.3 | 9.6 | 0.00 | 0.00 | 0.00 | 47 | 1015.9 |
| 20260502213032 | 47 | 258 | 4.3 | 7.8 | 0.00 | 0.00 | 0.00 | 47 | 1015.8 |
| 20260502211537 | 47 | 297 | 2.6 | 9.6 | 0.00 | 0.00 | 0.00 | 48 | 1015.9 |
| 20260502210047 | 46 | 318 | 4.3 | 9.6 | 0.00 | 0.00 | 0.00 | 47 | 1016.0 |
| 20260502204536 | 46 | 308 | 3.5 | 9.6 | 0.00 | 0.00 | 0.00 | 48 | 1016.0 |
| 20260502203036 | 46 | 314 | 4.3 | 7.8 | 0.00 | 0.00 | 0.00 | 46 | 1016.1 |
| 20260502201532 | 46 | 315 | 3.5 | 10.4 | 0.00 | 0.00 | 0.00 | 48 | 1016.3 |
| 20260502200042 | 46 | 232 | 5.2 | 8.7 | 0.00 | 0.00 | 0.00 | 48 | 1016.5 |
| 20260502194540 | 46 | 253 | 2.6 | 12.2 | 0.00 | 0.00 | 0.00 | 48 | 1016.6 |
| 20260502193035 | 46 | 303 | 3.5 | 10.4 | 0.00 | 0.00 | 0.00 | 48 | 1016.7 |
| 20260502191536 | 45 | 15 | 5.2 | 9.6 | 0.00 | 0.00 | 0.00 | 47 | 1016.8 |
| 20260502190036 | 46 | 251 | 6.1 | 10.4 | 0.00 | 0.00 | 0.00 | 47 | 1016.8 |
| 20260502184535 | 46 | 17 | 2.6 | 8.7 | 0.00 | 0.00 | 0.00 | 48 | 1017.1 |
| 20260502183038 | 45 | 357 | 2.6 | 8.7 | 0.00 | 0.00 | 0.00 | 48 | 1017.0 |
| 20260502181539 | 45 | 6 | 4.3 | 11.3 | 0.00 | 0.00 | 0.00 | 48 | 1017.2 |
| 20260502163038 | 43 | 346 | 4.3 | 8.7 | 0.00 | 0.00 | 0.00 | 48 | 1017.9 |
| 20260502161536 | 44 | 309 | 4.3 | 7.8 | 0.00 | 0.00 | 0.00 | 49 | 1017.9 |
| 20260502151541 | 42 | 11 | 6.1 | 11.3 | 0.00 | 0.00 | 0.00 | 52 | 1017.9 |
| 20260502123041 | 39 | 26 | 2.6 | 5.2 | 0.00 | 0.00 | 0.00 | 68 | 1018.0 |
| 20260502121537 | 37 | 352 | 0.9 | 6.1 | 0.00 | 0.00 | 0.00 | 71 | 1017.9 |
| 20260502114549 | 36 | 312 | 0.9 | 4.3 | 0.00 | 0.00 | 0.00 | 74 | 1017.5 |
| 20260502113034 | 35 | 356 | 1.7 | 3.5 | 0.00 | 0.00 | 0.00 | 76 | 1017.4 |
| 20260502111542 | 34 | 246 | 0.0 | 3.5 | 0.00 | 0.00 | 0.00 | 77 | 1017.3 |
| 20260502110037 | 34 | 305 | 0.0 | 2.6 | 0.00 | 0.00 | 0.00 | 78 | 1017.2 |
| 20260502104537 | 34 | 0 | 0.0 | 0.0 | 0.00 | 0.00 | 0.00 | 78 | 1017.2 |
| 20260502103034 | 34 | 0 | 0.0 | 1.7 | 0.00 | 0.00 | 0.00 | 78 | 1017.2 |
| 20260502101536 | 35 | 0 | 0.9 | 3.5 | 0.00 | 0.00 | 0.00 | 77 | 1017.0 |
| 20260502071532 | 37 | 0 | 0.0 | 0.0 | 0.00 | 0.00 | 0.00 | 84 | 1016.1 |
| 20260502070034 | 37 | 0 | 0.0 | 0.0 | 0.00 | 0.00 | 0.00 | 83 | 1016.4 |
| 20260502064556 | 37 | 0 | 0.0 | 0.0 | 0.00 | 0.00 | 0.00 | 82 | 1016.3 |
| 20260502063040 | 38 | 0 | 0.0 | 0.0 | 0.00 | 0.00 | 0.00 | 81 | 1016.4 |
| 20260502061535 | 38 | 0 | 0.0 | 0.9 | 0.00 | 0.00 | 0.00 | 80 | 1016.6 |
| 20260502060043 | 38 | 0 | 0.0 | 0.9 | 0.00 | 0.00 | 0.00 | 78 | 1016.8 |
| 20260502054534 | 38 | 93 | 0.0 | 0.9 | 0.00 | 0.00 | 0.00 | 78 | 1016.9 |
| 20260502053041 | 38 | 0 | 0.0 | 0.9 | 0.00 | 0.00 | 0.00 | 78 | 1016.9 |
| 20260502051535 | 39 | 0 | 0.0 | 2.6 | 0.00 | 0.00 | 0.00 | 78 | 1016.9 |
| 20260502050038 | 39 | 108 | 0.0 | 1.7 | 0.00 | 0.00 | 0.00 | 77 | 1016.8 |
| 20260502044534 | 39 | 101 | 0.9 | 5.2 | 0.00 | 0.00 | 0.00 | 76 | 1016.7 |
| 20260502043039 | 40 | 315 | 0.9 | 4.3 | 0.00 | 0.00 | 0.00 | 71 | 1016.4 |
| 20260502041540 | 40 | 35 | 0.0 | 2.6 | 0.00 | 0.00 | 0.00 | 72 | 1016.4 |
| 20260502040032 | 40 | 58 | 2.6 | 12.2 | 0.00 | 0.00 | 0.00 | 71 | 1016.2 |
| 20260502034533 | 41 | 342 | 2.6 | 5.2 | 0.00 | 0.00 | 0.00 | 70 | 1016.1 |
| 20260502033034 | 41 | 1 | 1.7 | 3.5 | 0.00 | 0.00 | 0.00 | 71 | 1015.9 |
| 20260502031537 | 41 | 309 | 0.9 | 2.6 | 0.00 | 0.00 | 0.00 | 70 | 1015.8 |
| 20260502030044 | 41 | 2 | 0.0 | 2.6 | 0.00 | 0.00 | 0.00 | 70 | 1015.9 |
| 20260502024535 | 42 | 353 | 0.9 | 5.2 | 0.00 | 0.00 | 0.00 | 69 | 1016.0 |
| 20260502023037 | 42 | 304 | 1.7 | 3.5 | 0.00 | 0.00 | 0.00 | 69 | 1016.0 |
| 20260502021535 | 42 | 321 | 3.5 | 7.0 | 0.00 | 0.00 | 0.00 | 69 | 1015.9 |
| 20260502020036 | 42 | 332 | 0.9 | 4.3 | 0.00 | 0.00 | 0.00 | 69 | 1015.7 |
| 20260502014534 | 43 | 352 | 1.7 | 6.1 | 0.00 | 0.00 | 0.00 | 69 | 1015.8 |
| 20260502013049 | 43 | 323 | 3.5 | 8.7 | 0.00 | 0.00 | 0.00 | 68 | 1015.6 |
| 20260502011533 | 43 | 274 | 1.7 | 3.5 | 0.00 | 0.00 | 0.00 | 68 | 1015.4 |
| 20260502010037 | 43 | 27 | 1.7 | 4.3 | 0.00 | 0.00 | 0.00 | 68 | 1015.1 |